DECAYED

FREGAT DEB, 45827 (Decayed)

Orbit data source: Space-Track

FREGAT DEB, 45827 was space debris in LEO originally from a launch on Mon, 18 Jul 2011 UTC launched from the Tyuratam Missile And Space Complex (TTMTR). Debris objects in space refer to the collection of defunct objects orbiting the Earth. Examples of debris include non-operational satellites, rocket bodies, and fragments generated from explosions, collisions, or faulty payload assembly.

Not visible in the next 10 days
FREGAT DEB details
Identifier
45827, 2011-037BM
Orbit
Decayed
Last TLE update6 months ago
Origin
Flag of CISVVKO VKS (CIS)
ManufacturerLavochkin
MissionDecayed spacecraft
Bus & MotorUnknown
MassUnknown
Launch date (UTC)
2011-07-18 (13 years ago)
Launch vehicleUnknown
Launch site
Tyuratam Missile And Space Complex (TTMTR)
Object type
Payload
Rocket body
Debris
Shape & HBRUnknown
Radar Cross SectionSmall (<0.1 m²)

Expand to show TLE details & history

TLE from 6 months ago
0 FREGAT DEB
1 45827U 11037BM  24168.05010666  .10187582  31228+0  27244-1 0  9990
2 45827  51.3138 118.8033 0041951 246.4886 113.1709 16.00199680184332
Epoch: 2024-06-16T01:12Z
Definitive object data (Epoch: 2024-06-16T01:12:09.215Z)
Latitude-0°
Longitude-164.04023°
Altitude285.664 km
Speed7.731 km/s
True Right ascension07h 55m 12s
True Declination0° 00' 00"
Sunlit
Object was in daylight at TLE epoch
Visualization observer readout
Observer readout values are unavailable because the object's trajectory could not be propagated. This is usually caused when the trajectory data is faulty or the object's orbit has decayed.
Visualization observer readout
Observer readout values are unavailable because the object's trajectory could not be propagated. This is usually caused when the trajectory data is faulty or the object's orbit has decayed.
Orbital elements
Apogee altitude302.347 km
Perigee altitude246.531 km
Semi-major axis6,652.576 km
Eccentricity0.0041951
Inclination51.3138°
RAAN118.8033°
Arg. of periapsis246.4886°
True anomaly113.61193°
Mean anomaly113.1709°
Eccentric anomaly113.39151°
Mean motion3.99999 °/min
BSTAR0.027244
Orbital period90 mins
Loading maneuver chart data...
Loading historical data...
Loading historical data...
Loading historical data...
Loading historical data...
Loading historical data...
Loading historical data...
Loading historical data...

FREGAT DEB Visibility forecast

Observer location: undefined°, undefined

This satellite is decayed
Span
Click to sort rows by Start time (UTC) header in descending order
Start Az.
Max El. time (UTC)
Max El. Az.
Max El.
End time (UTC)
End Az.
|